Cringleford, United Kingdom
Current Conditions -  °F | °C
As of 8:50 PM on Thursday 27 Nov 2014 (Local Time) from EGSH Reporting Station
Haze Haze  
Wind Chill: 52°   Ceiling: Unl
Heat Index: 52°   Visibility: 2.8mi
Dew Point: 50°   Wind: 5mph
Humidity: 94%   Direction: 110°ESE
Pressure: 29.65"   Gusts: NA
Location:  52.6°N, 1.24°E
Report Text: EGSH 272050Z 11004KT 4500 BR FEW013 11/10 Q1004 NOSIG
Loading
Personal Weather Stations






























Interactive Weather Map New forecast layout! Learn more

10-Day Weather Forecast

Advertisements
Track Severe Weather on mobile